901  
ASUS46 KSTO 120715  
RWRCA  
 
NORTHERN AND CENTRAL CA REGIONAL WEATHER ROUNDUP  
NATIONAL WEATHER SERVICE SACRAMENTO CA  
1200 AM PDT MON APR 12 2021  
 
NOTE: FAIR INDICATES FEW OR NO CLOUDS BELOW 12,000 FEET WITH NO  
SIGNIFICANT WEATHER AND/OR S TO VISIBILITY
.  
 
CAZ001-003-120800-  
NORTHWEST AREA  
 
CITY SKY/WX TMP DP RH WIND PRES REMARKS
 
CRESCENT CITY CLEAR 48 40 73 N6 29.94F HAZE  
UKIAH CLEAR 53 43 68 CALM 29.85R  

 
 
CAZ006-505>513-120800-  
BAY AREA  
 
CITY SKY/WX TMP DP RH WIND PRES REMARKS
 
SANTA ROSA CLEAR 45 42 89 CALM 29.85S  
SAN RAFAEL N/A 47 MM MM MISG  
NAPA CLEAR 47 42 83 CALM 29.85S  
CONCORD CLEAR 53 42 66 S12 29.84S  
OAKLAND CITY N/A 51 MM MM MISG  
OAKLAND PTCLDY 50 44 80 S3 29.87F  
SAN FRAN CITY N/A 49 MM 80 MISG  
SAN FRAN ARPT CLEAR 51 43 74 SW5 29.87F  
LIVERMORE CLEAR 49 43 80 NW6 29.85F  
HAYWARD PTCLDY 49 43 80 W3 29.87F  
REDWOOD CITY N/A 49 MM 73 MISG  
MOFFETT ARPT N/A N/A N/A N/A MISG N/A  
SAN JOSE ARPT PTCLDY 50 42 74 N5 29.88S  

 
CAZ034-037-514>518-120800-  
CENTRAL COAST  
 
CITY SKY/WX TMP DP RH WIND PRES REMARKS
 
WATSONVILLE CLOUDY 48 44 86 NE3 29.88F  
SALINAS CLOUDY 50 44 80 N6 29.88S  
MONTEREY CLOUDY 52 45 77 SW9 29.89F  
SAN LUIS OBISP CLOUDY 48 46 93 NW5 29.84S  
SANTA MARIA CLOUDY 46 43 89 W5 29.85S FOG  
HALF MOON BAY CLOUDY 45 41 87 CALM 29.89F FOG  

 
CAZ015-016-120800-  
NORTHERN SACRAMENTO VALLEY  
 
CITY SKY/WX TMP DP RH WIND PRES REMARKS
 
REDDING CLEAR 69 23 17 N12G21 29.83S  
RED BLUFF CLEAR 67 26 21 NW12 29.82R  
OROVILLE CLEAR 62 37 39 E6 29.79S  

 
CAZ016>018-120800-  
SOUTHERN SACRAMENTO VALLEY  
 
CITY SKY/WX TMP DP RH WIND PRES REMARKS
 
AUBURN CLEAR 57 36 44 CALM 29.82F  
BEALE AFB CLEAR 51 41 70 SE7 29.77S  
LINCOLN FAIR 52 41 66 E6 29.78R  
MARYSVILLE CLEAR 58 40 51 E3 29.78S  
SAC INTL ARPT CLEAR 56 45 66 S7 29.77S  
MATHER AIRPORT NOT AVBL  
DOWNTOWN SAC N/A 57 MM MM MISG  
SAC EXEC ARPT CLEAR 54 43 66 SW7 29.78S  
VACAVILLE CLEAR 58 41 53 SW6 29.79S  
TRAVIS AFB CLEAR 51 44 76 SW18 29.79S  

 
CAZ019>021-120800-  
SAN JOAQUIN VALLEY  
 
CITY SKY/WX TMP DP RH WIND PRES REMARKS
 
STOCKTON CLEAR 52 41 66 NW7 29.79S  
MODESTO CLEAR 59 41 51 NE5 29.78S  
MERCED CLEAR 57 42 57 W5 29.79S  
LEMOORE CLEAR 54 35 48 W7 29.80S  
FRESNO PTCLDY 66 43 43 W3 29.80S  
HANFORD CLEAR 58 48 69 W3 29.80S  
PORTERVILLE CLEAR 59 46 62 SE6 29.81S  
BAKERSFIELD CLEAR 65 38 36 E5 29.80S  

 
CAZ011-012-071-120800-  
NORTHERN MOUNTAINS  
 
CITY SKY/WX TMP DP RH WIND PRES REMARKS
 
YREKA CLEAR 48 28 46 N13 30.03S  
MOUNT SHASTA CLEAR 48 25 40 VRB5 30.00S  
ALTURAS CLEAR 40 15 36 N10 30.04S WCI 33  

 
CAZ011-012-071-120800-  
SIERRA NEVADA MTNS  
 
CITY SKY/WX TMP DP RH WIND PRES REMARKS
 
BLUE CANYON CLEAR 51 16 24 VRB6 29.95F  
TRUCKEE CLEAR 32 21 64 CALM 30.03S  
TAHOE VLY ARPT CLEAR 35 27 72 S6 30.01S WCI 30  
MAMMOTH LAKES FAIR 41 12 30 W14 30.04S  

 
 
 
CLICK HERE TO GO TO PREVIOUS BULLETINS.

The Nexlab CA Page Main Text Page